Location: Anières
(46.2762°N, 6.2230°E)
Time: 14:40:16
(UTC+00:00)

Daily predictions for brighter satellites

Satellite Brightness Start Highest point End
(mag) Time Altitude Azimuth Time Altitude Azimuth Time Altitude Azimuth
Meteor 1-27 Rocket 4.0 19:41:22 10° SSE 19:46:56 52° E 19:52:37 10° NNE
Cosmos 1633 Rocket 3.4 19:46:59 10° NNW 19:51:22 71° W 19:55:41 10° S
Cosmos 2219 3.3 19:46:45 10° NNW 19:52:25 81° WSW 19:58:01 10° SSE
SJ 16-02 2.6 19:50:17 10° SSE 19:53:41 23° E 19:57:07 10° NE
H-2A R/B 4.1 19:50:04 10° SSW 19:54:04 35° W 19:58:00 10° NNW
Cosmos 1340 3.0 19:50:59 10° SSE 19:54:33 45° E 19:58:08 10° NNE
Cosmos 1315 Rocket 3.7 19:50:36 10° NNW 19:54:34 50° W 19:58:27 10° S
USA 186 4.2 19:57:10 10° WSW 19:58:14 12° W 19:59:19 10° WNW
Cosmos 2082 3.9 19:53:37 10° NNW 19:59:14 63° ENE 20:04:47 10° SE
OBJECT-B 3.8 19:59:20 10° WSW 20:00:13 11° W 20:01:05 10° WNW
Meteor 1-11 Rocket 3.9 19:54:25 10° N 20:00:27 89° E 20:06:24 10° S
Cosmos 2263 Rocket 3.1 19:57:04 10° NNW 20:02:14 36° NE 20:07:21 10° ESE
Cosmos 1470 Rocket 3.5 19:58:24 10° N 20:02:45 90° WNW 20:07:04 10° S
Cosmos 1743 2.7 20:02:12 10° N 20:05:58 69° E 20:09:44 10° SSE
Ariane Rocket 3.0 20:00:58 10° SSE 20:06:00 72° ENE 20:11:06 10° N
BREEZE-M DEB (TANK) 2.7 20:08:11 10° W 20:11:06 50° NNW 20:13:14 10° ENE
SPOT 5 4.0 20:06:32 10° SE 20:11:14 33° ENE 20:15:47 10° N
IRAS Rocket 4.3 20:06:35 10° NNE 20:12:14 74° ESE 20:17:52 10° S
Terra 3.3 20:09:15 10° ESE 20:12:56 23° ENE 20:16:39 10° NNE
Resurs 01 Rocket 1.8 20:10:22 10° S 20:14:45 73° WSW 20:19:11 10° NNW
Aureole 1 Rocket 2.2 20:13:19 10° SSW 20:16:32 84° WNW 20:19:32 10° NNE
Cosmos 1515 Rocket 3.6 20:12:55 10° S 20:17:17 89° W 20:21:43 10° N
Cosmos 2227 Rocket 3.1 20:14:55 10° NW 20:20:17 44° WSW 20:25:38 10° S
Cosmos 921 Rocket 3.1 20:17:05 10° NNW 20:21:37 74° ENE 20:25:38 13° SSE
SWAS 4.4 20:23:29 10° NNW 20:27:49 85° ENE 20:31:20 15° SSE
Cosmos 1980 Rocket 2.1 20:23:43 10° SSW 20:29:19 73° ESE 20:34:59 10° NNE
CARTOSAT-1 3.5 20:26:14 12° SSE 20:30:12 77° ENE 20:34:32 10° N
Cosmos 1869 Rocket 3.9 20:26:40 10° N 20:31:05 53° ENE 20:34:33 16° SSE
Cosmos 2228 Rocket 3.6 20:29:01 12° SSE 20:32:59 44° E 20:37:18 10° NNE
Cosmos 1464 Rocket 4.1 20:27:50 10° S 20:34:02 82° W 20:40:14 10° N
Cosmos 1378 4.0 20:34:31 18° SE 20:36:35 31° E 20:39:50 10° NNE
Cosmos 2344 3.5 20:30:01 10° SSW 20:37:32 82° SE 20:45:14 10° NE
Cosmos 2322 Rocket 3.7 20:36:17 15° ESE 20:38:16 17° E 20:41:48 10° ENE
Cosmos 1777 Rocket 4.2 20:33:38 10° S 20:38:38 49° ESE 20:43:41 10° NNE
ISS -3.4 20:35:33 10° WNW 20:38:53 62° NNE 20:41:27 16° ESE
Cosmos 2369 3.8 20:33:22 10° SSW 20:39:01 84° WNW 20:44:43 10° NNE
Spot 2 Rocket 3.7 20:35:42 16° SSE 20:39:42 59° ENE 20:44:40 10° N
Cosmos 1354 Rocket 4.0 20:34:33 10° SSW 20:39:49 79° ESE 20:45:09 10° NNE
SPOT 3 Rocket 3.5 20:36:10 12° SSE 20:40:52 88° WSW 20:46:04 10° NNW
Cosmos 773 Rocket 4.0 20:36:03 10° NNW 20:41:18 80° ENE 20:45:19 17° SSE
Cosmos 1536 4.1 20:37:44 10° NNW 20:41:29 39° W 20:45:15 10° SSW
ATLAS 2AS CENTAUR R/B 3.0 20:34:30 10° SSW 20:42:13 66° ESE 20:49:42 10° NE
Okean 1 3.2 20:40:17 10° S 20:44:16 80° E 20:48:18 10° N
Meteor 2-4 Rocket 4.3 20:40:22 15° SSE 20:44:46 41° E 20:50:02 10° NNE
H-2A R/B 4.2 20:42:39 10° N 20:46:08 27° WNW 20:49:35 10° SW
Meteor 1-19 Rocket 4.1 20:40:57 10° S 20:46:22 77° E 20:51:46 10° NNE
NOSS 3-4 (C) 4.5 20:41:40 10° WSW 20:47:15 48° NW 20:53:19 10° NNE
Cosmos 1092 Rocket 4.1 20:41:17 10° N 20:47:25 61° ENE 20:52:05 18° SSE
RESURS DK-1 2.3 20:44:06 10° SSW 20:48:10 64° ESE 20:52:16 10° NNE
Nadezhda 4 Rocket 4.1 20:42:00 10° N 20:48:15 80° W 20:54:08 11° S
Cosmos 1697 Rocket 3.9 20:42:55 10° SW 20:48:21 45° NW 20:53:48 10° NNE
SL-4 R/B 3.6 20:45:50 10° WNW 20:49:39 27° SW 20:52:09 16° S
Meteor 2-14 Rocket 4.5 20:45:06 10° N 20:51:13 87° W 20:56:34 14° S
Cosmos 1634 Rocket 4.3 20:49:58 16° SSE 20:54:47 51° E 21:00:44 10° NNE
ARIANE 5 R/B 3.3 20:53:39 21° SE 20:56:17 43° ENE 21:00:34 10° N
Cosmos 1707 Rocket 4.1 20:54:13 21° SSE 20:56:41 41° E 21:00:51 10° NNE
ATLAS CENTAUR R/B 4.0 20:53:30 10° NNW 20:56:48 18° NNE 21:00:01 10° ENE
Cosmos 44 Rocket 3.3 20:53:49 10° NNW 20:58:32 66° NE 21:01:28 22° SE
Cosmos 2227 4.3 20:58:29 10° NNW 21:04:15 69° ENE 21:07:59 22° SE
Cosmos 158 Rocket 4.0 21:01:00 10° NNW 21:06:09 78° ENE 21:09:24 24° SSE
ATLAS 3B R/B 3.2 21:00:20 10° NW 21:07:37 62° NE 21:13:24 18° ESE
NOSS 2-1 (E) 3.3 21:08:10 34° SE 21:08:27 35° ESE 21:11:25 10° NE
Cosmos 1975 2.8 21:07:24 10° N 21:11:30 80° E 21:13:33 28° SSE
USA 81 4.2 21:09:01 22° SSE 21:12:20 60° E 21:17:33 10° NNE
Cosmos 2026 Rocket 4.0 21:06:30 10° N 21:12:42 81° E 21:17:00 21° SSE
ERS-1 Rocket 3.0 21:12:32 22° S 21:15:51 80° WSW 21:20:55 10° NNW
CZ-4B R/B 4.4 21:15:15 10° NW 21:16:41 13° WNW 21:18:07 10° W
SL-16 R/B 2.5 21:13:28 20° S 21:17:08 48° ESE 21:22:35 10° NE
Meteor 1-4 Rocket 3.8 21:15:46 10° NNE 21:18:45 26° ENE 21:19:36 24° E
CZ-4C R/B 4.4 21:13:16 10° NNW 21:18:57 28° NNE 21:25:32 10° E
Cosmos 1538 Rocket 4.0 21:16:16 10° NNW 21:21:32 75° ENE 21:24:18 28° SSE
Helios 1A Rocket 3.8 21:19:01 19° SSW 21:21:34 43° W 21:25:24 10° NNW
GENESIS II 4.0 21:20:46 18° SSW 21:23:29 67° SE 21:27:24 10° NE
CZ-2C R/B 3.8 21:19:18 10° NNE 21:24:05 85° WNW 21:27:47 17° SSW
Cosmos 1733 Rocket 3.1 21:21:20 10° N 21:25:48 68° E 21:27:44 32° SSE
Meteor 2-8 Rocket 4.4 21:25:01 19° S 21:29:30 82° E 21:35:37 10° N
OE (NEXTSAT) 4.0 21:27:24 10° W 21:30:43 86° S 21:32:08 31° E
EP 1 4.5 21:29:19 25° SSW 21:31:04 77° SE 21:33:53 10° NE
Geosat 4.3 21:28:35 26° SE 21:31:17 59° ENE 21:36:14 10° NNW
SJ 16-02 2.7 21:27:56 10° SW 21:32:00 38° WNW 21:36:07 10° N
Meteor 1-18 Rocket 4.5 21:26:49 11° SSW 21:32:14 68° WNW 21:37:52 10° N
SAR-Lupe-4 3.8 21:29:08 10° NNE 21:32:39 52° E 21:33:21 44° SE
Iridium 45 4.4 21:33:06 38° S 21:34:20 83° W 21:37:50 10° N
Cosmos 1356 4.2 21:35:10 32° E 21:35:10 32° E 21:38:05 10° NNE
Cosmos 2292 Rocket 3.9 21:34:34 10° NNW 21:37:20 34° W 21:38:15 27° SW
Cosmos 2278 4.3 21:32:15 10° SW 21:37:48 56° WNW 21:43:25 10° NNE
Cosmos 1862 Rocket 3.5 21:37:31 34° S 21:39:25 74° E 21:43:55 10° NNE
Cosmos 2360 Rocket 2.9 21:40:43 30° SE 21:42:16 36° ESE 21:47:23 10° NE
BREEZE M DEB (TANK) 4.4 21:38:20 10° WNW 21:43:09 58° SSW 21:55:47 19° SE
Cosmos 1726 3.6 21:41:34 10° NNE 21:44:35 23° ENE 21:45:09 22° E
Meteor 2-15 4.4 21:41:00 21° SSW 21:45:16 83° W 21:51:24 10° N
Cosmos 2263 Rocket 3.1 21:41:02 10° NW 21:46:10 39° WSW 21:49:11 22° SSW
Meteor 1-13 Rocket 4.5 21:44:29 32° SSE 21:46:46 51° E 21:52:07 10° NNE
Cosmos 2266 Rocket 4.5 21:42:27 10° N 21:48:29 48° ENE 21:51:20 29° SE
NOSS 2-1 (C) 3.0 21:46:44 20° SW 21:48:49 68° NW 21:52:02 10° NE
SPOT 5 4.2 21:45:43 17° SSW 21:49:12 37° W 21:53:57 10° NNW
Terra 2.5 21:47:57 25° SSW 21:50:24 47° W 21:55:01 10° NNW
Cosmos 1441 Rocket 3.0 21:51:04 53° S 21:51:51 79° ESE 21:55:35 10° NNE
Cosmos 1346 Rocket 3.4 21:50:23 24° SW 21:52:34 53° WNW 21:56:31 10° N
SAR-Lupe-1 4.1 21:50:07 10° N 21:53:42 74° WNW 21:54:47 42° SSW
Cosmos 2279 Rocket 4.0 21:53:29 25° S 21:57:17 87° W 22:03:33 10° N
NOSS 2-1 (D) 3.5 21:56:58 17° WSW 21:59:18 51° NW 22:02:29 10° NNE
Cosmos 990 Rocket 3.9 21:57:54 34° S 22:00:14 72° ESE 22:05:28 10° NNE
USA 215 3.6 21:54:44 10° ENE 22:00:56 43° SE 22:03:42 29° S
Cosmos 1680 Rocket 3.9 21:56:05 10° NNW 22:01:18 56° ENE 22:03:26 34° SE
MINOTAUR IV R/B 4.5 22:00:16 39° SSW 22:01:53 79° ESE 22:06:24 10° NNE
Iridium 2 3.8 21:59:51 10° N 22:03:36 67° W 22:04:23 50° SSW
Meteor 1-12 Rocket 4.4 22:00:32 10° N 22:06:28 70° ENE 22:08:53 36° SSE
Cosmos 1066 Rocket 4.2 22:05:06 32° S 22:07:56 87° E 22:13:38 10° NNE
ADEOS Rocket 4.3 22:05:31 17° ESE 22:08:43 27° ENE 22:13:39 10° N
Spot 4 4.5 22:07:13 33° ESE 22:08:50 46° ENE 22:13:24 10° N
Cosmos 1818 4.0 22:04:07 10° NNW 22:09:32 58° NE 22:12:08 30° ESE
Iridium 4 Rocket 3.5 22:07:53 10° N 22:12:26 57° E 22:13:44 43° SE
Cosmos 1898 Rocket 3.5 22:11:50 41° S 22:13:35 64° ESE 22:18:51 10° NNE
ISS -1.9 22:12:38 10° W 22:14:21 21° WSW 22:14:21 21° WSW
Okean 1-7 3.0 22:17:25 54° SSE 22:18:15 69° E 22:22:36 10° NNE
Iridium 51 3.8 22:21:01 78° SW 22:21:09 81° W 22:24:43 10° N
Cosmos 2322 Rocket 2.3 22:18:02 23° SW 22:21:37 76° WNW 22:27:15 10° NNE
Okean 3 3.5 22:25:02 57° SE 22:25:31 62° E 22:29:44 10° NNE
Cosmos 1844 Rocket 2.6 22:20:26 10° NNW 22:26:03 85° WSW 22:27:57 43° SSE
Cosmos 2333 Rocket 2.6 22:25:18 40° SE 22:26:28 45° ESE 22:31:50 10° NE
Cosmos 1805 3.8 22:24:06 10° NNW 22:27:52 47° W 22:28:28 43° WSW
Cosmos 1461 4.4 22:28:14 10° NNW 22:31:57 31° NE 22:33:55 21° E
H-2A R/B 3.8 22:28:16 10° NNE 22:32:14 46° E 22:32:20 46° ESE
BREEZE-M DEB (TANK) 3.1 22:29:44 10° W 22:31:52 38° SW 22:31:52 38° SW
ATLAS 2AS CENTAUR R/B 4.2 22:26:22 10° WSW 22:33:38 41° NW 22:40:39 10° NNE
Meteor 1-23 Rocket 4.2 22:34:01 42° S 22:36:03 76° E 22:41:54 10° NNE
ATLAS CENTAUR R/B 1.8 22:31:36 10° NNW 22:36:29 69° NE 22:37:50 45° ESE
USA 267 3.8 22:30:19 10° ESE 22:36:43 58° NNE 22:43:06 10° NW
Cosmos 1733 4.4 22:37:32 10° NNW 22:40:55 31° W 22:41:23 30° WSW
Cosmos 1766 3.4 22:39:11 10° NNW 22:43:04 62° W 22:43:23 59° WSW
Cosmos 2219 Rocket 2.5 22:44:47 43° SE 22:45:48 49° ESE 22:51:11 10° NE
Cosmos 1703 Rocket 3.9 22:48:16 46° SW 22:49:18 61° W 22:53:42 10° N
Cosmos 1844 3.8 22:43:59 10° NNW 22:49:46 68° WSW 22:51:27 45° S
Cosmos 372 Rocket 3.9 22:51:17 53° S 22:52:23 72° ESE 22:57:33 10° NNE
Meteor 1-4 Rocket 4.5 22:50:52 10° NW 22:53:26 19° W 22:53:35 19° W
ATLAS 3B R/B 3.7 22:51:28 10° NW 22:58:07 37° WSW 23:00:39 29° SSW
Cosmos 1707 3.1 23:00:36 52° E 23:00:36 52° E 23:04:14 10° NNE
SL-16 R/B 3.8 22:56:26 10° WSW 23:01:27 32° NW 23:06:30 10° NNE
Cosmos 1655 Rocket 4.4 22:55:45 10° NNW 23:01:46 52° W 23:04:10 34° SSW
NOSS 3-1 (A) 4.4 22:54:42 10° NW 23:01:58 63° NE 23:08:57 16° ESE
Cosmos 1782 Rocket 3.7 23:00:02 10° NNW 23:04:19 57° W 23:04:50 53° SW
Okean 2 4.1 23:06:39 41° E 23:06:39 41° E 23:10:30 10° NNE
ERS-2 2.1 23:03:30 10° NNE 23:06:52 74° NE 23:06:52 74° NE
CZ-4C R/B 3.1 23:01:28 10° NW 23:08:38 74° NE 23:14:17 23° SE
NOSS 3-1 (C) 4.0 23:01:53 10° NW 23:09:21 86° SW 23:14:03 31° SSE
USA 290 4.1 23:10:46 24° ENE 23:10:46 24° ENE 23:12:28 10° NE
Cosmos 1238 Rocket 4.0 23:09:54 10° NNE 23:11:57 25° ENE 23:11:57 25° ENE
Gblst 52 Del rocket 4.5 23:08:18 10° WSW 23:14:43 74° NNW 23:20:26 10° ENE
Cosmos 2237 Rocket 3.6 23:14:56 22° ESE 23:15:43 23° E 23:20:03 10° NE
KORONAS-FOTON 4.3 23:16:49 47° E 23:16:49 47° E 23:20:15 10° NNE
Cosmos 1470 2.9 23:15:18 10° NNW 23:19:01 60° W 23:19:01 60° W
COSMOS 2428 2.7 23:17:53 49° SSE 23:19:10 63° ESE 23:24:48 10° NNE
Cosmos 1726 3.7 23:16:30 10° NW 23:19:26 24° W 23:19:26 24° W
Cosmos 1300 Rocket 3.4 23:16:08 10° NNW 23:20:29 73° W 23:20:51 68° SW
ALOS 2 2.8 23:22:00 53° WSW 23:22:22 55° W 23:26:42 10° NNW
Cosmos 2151 Rocket 3.9 23:18:59 10° N 23:23:20 55° ENE 23:23:57 50° ESE
PSLV R/B 4.1 23:19:06 10° NNE 23:23:21 46° E 23:23:40 45° ESE
USA 305 4.4 23:26:44 23° E 23:26:44 23° E 23:28:48 10° ENE
Cosmos 1937 Rocket 4.3 23:22:46 28° WSW 23:25:10 46° WNW 23:30:16 10° NNE
Cosmos 2360 Rocket 3.3 23:22:25 18° WSW 23:26:12 40° NW 23:31:32 10° NNE
Cosmos 1242 Rocket 2.7 23:22:49 10° N 23:26:07 69° NNE 23:26:07 69° NNE
Okean 2 Rocket 3.1 23:22:55 10° N 23:27:27 70° E 23:28:05 60° SE
Cosmos 405 Rocket 3.8 23:28:20 34° E 23:28:20 34° E 23:31:30 10° NNE
In-Cosmos 22 4.1 23:29:31 51° S 23:30:59 85° E 23:36:30 10° NNE
Cosmos 1437 Rocket 3.8 23:29:48 10° N 23:33:15 34° ENE 23:33:33 33° E
Nimbus 7 Rocket 4.4 23:28:39 10° NNE 23:34:31 67° ESE 23:36:12 46° SSE
Cosmos 1908 3.4 23:31:04 10° N 23:34:48 60° ENE 23:34:48 60° ENE
Cosmos 1867 3.5 23:33:44 52° SSW 23:35:05 79° SE 23:40:35 10° NE
Meteor 1-21 4.2 23:34:35 47° SSW 23:36:23 83° WNW 23:42:13 10° N
Cosmos 1626 2.3 23:37:36 64° ENE 23:37:36 64° ENE 23:40:56 10° NNE
SL-08 R/B 4.4 23:32:56 10° N 23:39:15 87° E 23:41:27 44° S
USA 215 3.5 23:37:40 10° NE 23:44:10 69° NNW 23:50:40 10° WSW
Cosmos 1953 3.0 23:40:28 10° N 23:44:18 43° ENE 23:44:46 41° E
Cosmos 2278 Rocket 2.5 23:40:35 10° NNW 23:46:15 63° ENE 23:48:51 32° SE
Cosmos 468 4.5 23:42:19 10° NNW 23:47:35 80° ENE 23:49:03 48° SE
Cosmos 1674 2.8 23:50:45 66° WNW 23:50:45 66° WNW 23:54:24 10° N
Sich 1 Rocket 3.9 23:49:26 10° NNW 23:53:40 49° W 23:54:00 48° WSW
ADEOS Rocket 3.2 23:52:27 42° SW 23:53:53 52° W 23:59:44 10° NNW
